Regional Weather Roundup
Issued by NWS Jackson, KY

Home | Current Version | Previous Version | Graphics & Text | Print | Product List | Glossary On
Versions: 1 2 3 4 5 6 7 8 9 10 11 12 13 14 15 16 17 18 19 20 21 22 23 24 25 26 27 28 29 30 31 32 33 34 35 36 37 38 39 40 41 42 43 44 45 46 47 48 49 50
000
ASUS43 KJKL 302110
RWRJKL

EAST KENTUCKY HOURLY WEATHER ROUNDUP
NATIONAL WEATHER SERVICE JACKSON KY
500 PM EDT FRI SEP 30 2016

NOTE: "FAIR" INDICATES FEW OR NO CLOUDS BELOW 12,000 FEET WITH
NO SIGNIFICANT WEATHER AND/OR OBSTRUCTIONS TO VISIBILITY.

* THESE REPORTS ARE NOT UNDER NWS QUALITY CONTROL AND MAY NOT
  REPORT WEATHER SUCH AS PRECIPITATION AND FOG.

KYZ079-080-083-085-087-088-110-112-115-119-120-302200
...EASTERN KENTUCKY...

CITY           SKY/WX    TMP DP  RH WIND       PRES   REMARKS
JACKSON        MOSUNNY   66  50  56 CALM      30.03R
LONDON         SUNNY     65  46  50 SW9       30.03S
SOMERSET*      CLOUDY    61  50  67 W9        30.04S
MONTICELLO*    PTSUNNY   63  53  70 SW9G20    30.05S
WILLIAMSBURG*  PTCLDY    64  50  59 CALM      30.02F
MIDDLESBORO*   PTSUNNY   66  52  59 N3        30.02F
HARLAN APT*    PTCLDY    68  46  45 SW3       30.02F
PIKE CO APT*     N/A     65  55  67 W5        30.02R
MOREHEAD APT*  PTCLDY    64  52  63 CALM      30.03S
ASHLAND*       PTSUNNY   66  57  72 W7        30.00R THUNDER
$$

KYZ035-036-041-042-044-050-067-078-099-302200
...CENTRAL KENTUCKY...

CITY           SKY/WX    TMP DP  RH WIND       PRES   REMARKS
MT STERLING*   MOSUNNY   66  52  59 SW5       30.03S
FLEMING/MASON* PTSUNNY   63  51  65 CALM      30.03R
DANVILLE*      CLOUDY    57  52  82 S3        30.04R
LEXINGTON      CLOUDY    63  49  60 SW8       30.02S
FRANKFORT      PTSUNNY   64  46  52 VRB6      30.00S
LOUISVILLE     PTSUNNY   61  54  77 S6        30.01S
LEBANON*       CLOUDY    59  55  88 S3        30.02F
GLASGOW*       LGT RAIN  64  57  78 SW6       30.00F
BOWLING GREEN  LGT RAIN  64  58  80 SW7       30.00F
$$

KYZ091>093-OHZ055-061-077-WVZ005-015-034-035-042-302200
...SOUTHERN OHIO/WEST VIRGINIA...

CITY           SKY/WX    TMP DP  RH WIND       PRES   REMARKS
COVINGTON      PTSUNNY   67  54  63 S8        29.99S
COLUMBUS       PTSUNNY   62  61  96 N6        30.00R
DAYTON         CLOUDY    62  59  90 E8        30.01S
WILMINGTON     MOSUNNY   63  57  81 SW5       30.00S
HUNTINGTON     CLOUDY    66  55  67 W9        30.01R
CHARLESTON     CLOUDY    63  58  83 W6        30.01R
PINEVILLE*     CLOUDY    62  55  76 MISG      30.07R
BECKLEY        MOSUNNY   65  57  75 W10       30.01R
BLUEFIELD      PTSUNNY   61  55  81 W8        30.03R
LOGAN CO APT*  CLOUDY    63  57  82 CALM      30.02S
$$

VAZ002-007-008-TNZ017-027-036-066-071-302200
...SOUTHWEST VIRGINIA/EAST TENNESSEE...

CITY           SKY/WX    TMP DP  RH WIND       PRES   REMARKS
WISE*          MOSUNNY   64  43  45 S8        30.05S
JONESVILLE*      N/A     70  46  43 W6        30.03F
ABINGDON*      PTSUNNY   66  56  69 CALM      30.02S
BRISTOL        PTSUNNY   68  52  56 W6        30.01S
MORRISTOWN*    PTCLDY    70  45  40 NW7       30.00S
SEVIERVILLE*   CLOUDY    70  45  40 NW9       30.00S
KNOXVILLE      MOSUNNY   71  43  36 VRB7      30.00F
OAK RIDGE      CLOUDY    72  44  36 W6        30.03S
CROSSVILLE     MOSUNNY   64  47  53 W5        30.04F
NASHVILLE      CLOUDY    64  54  69 S5        30.03S
$$

...KEY TO REMARKS...
VSB - VISIBILITY IN MILES
WCI - WIND CHILL INDEX
HX  - HEAT INDEX

$$



USA.gov is the U.S. government's official web portal to all federal, state and local government web resources and services.